Location: Nitra
(0.0000°N, 18.0833°E)
Time: 12:46:43
(UTC+01:00)

Ariane H10 - Pass Details

Date: 25 September 2022
Orbit: 431 x 34647 km, 4.0° (Epoch: 26 November)

Event Time Altitude Azimuth Distance (km) Brightness Sun altitude
Rises 19:23:59 0° 265° (W) 8,873 10.7 -11.2°
Reaches altitude 10° 19:33:12 10° 263° (W) 4,937 8.6 -13.5°
Maximum altitude 19:42:27 62° 183° (S) 814 3.1 -15.8°
Enters shadow 19:44:06 28° 111° (ESE) 1,069 3.2 -16.2°
